Weather History for North Myrtle Beach, SC

Change the Weather History Date:

Sunday, February 2, 2014

  Actual Average Record
Temperature  
Mean Temperature 53 °F 46 °F  
Max Temperature 63 °F 55 °F 80 °F (1950)
Min Temperature 43 °F 37 °F 24 °F (1994)
Degree Days  
Heating Degree Days 12 19  
Month to date heating degree days 36 38  
Since 1 July heating degree days 1559 1506  
Cooling Degree Days 0 0  
Month to date cooling degree days 0 0  
Year to date cooling degree days 0 0  
Growing Degree Days 2 (Base 50)    
Moisture  
Dew Point 46 °F    
Average Humidity 82    
Maximum Humidity 100    
Minimum Humidity 64    
Precipitation  
Precipitation 0.00 in 0.11 in 1.08 in (2010)
Month to date precipitation 0.01 0.22  
Year to date precipitation 1.82 3.91  
Sea Level Pressure  
Sea Level Pressure 30.13 in    
Wind  
Wind Speed 5 mph (SSW)    
Max Wind Speed 13 mph    
Max Gust Speed 15 mph    
Visibility 6 miles    
Events Fog    
T = Trace of Precipitation, MM = Missing Value Source: NWS Daily Summary

Daily Weather History Graph

Daily Weather History Graph

Search for Another Location

Airport:

Trip Planner

Search our weather history database for the weather conditions in past years. The results will help you decide how hot, cold, wet, or windy it might be!

Date:

Astronomy

Feb. 02, 2014 Rise Set
Actual Time 7:10 AM EST 5:46 PM EST
Civil Twilight 6:44 AM EST 6:12 PM EST
Nautical Twilight 6:14 AM EST 6:42 PM EST
Astronomical Twilight 5:45 AM EST 7:12 PM EST
Moon 8:47 AM EST (2/2) 9:15 PM EST (2/2)
Length of Visible Light 11h 28m
Length of Day
10h 35m
Waxing Crescent, 11% of the Moon is Illuminated
Feb 2
Waxing Crescent
Feb 6
First Quarter
Feb 14
Full
Feb 22
Last Quarter
Mar 1
New

Hourly Weather History & Observations

Time (EST) Temp. Windchill Dew Point Humidity Pressure Visibility Wind Dir Wind Speed Gust Speed Precip Events Conditions
12:29 AM 44.1 °F - 43.0 °F 96% 30.13 in 5.0 mi Calm Calm - N/A   Overcast
12:53 AM 44.1 °F - 43.0 °F 96% 30.13 in 5.0 mi Calm Calm - N/A   Overcast
1:53 AM 44.1 °F 42.5 °F 43.0 °F 96% 30.12 in 5.0 mi WNW 3.5 mph - N/A   Overcast
2:53 AM 44.1 °F 42.5 °F 43.0 °F 96% 30.13 in 5.0 mi WNW 3.5 mph - N/A   Overcast
3:53 AM 44.1 °F 41.5 °F 43.0 °F 96% 30.13 in 6.0 mi NW 4.6 mph - N/A   Overcast
4:53 AM 45.0 °F 43.5 °F 44.1 °F 97% 30.14 in 3.0 mi SSE 3.5 mph - N/A   Overcast
5:13 AM 45.0 °F - 43.0 °F 93% 30.13 in 2.5 mi Calm Calm - N/A   Overcast
5:23 AM 45.0 °F - 43.0 °F 93% 30.13 in 0.8 mi Calm Calm - N/A   Mist
5:53 AM 45.0 °F - 44.1 °F 97% 30.14 in 0.2 mi Calm Calm - N/A Fog Fog
6:07 AM 45.0 °F - 44.1 °F 97% 30.14 in 0.5 mi Calm Calm - N/A Fog Fog
6:30 AM 45.0 °F - 45.0 °F 100% 30.14 in 1.8 mi Calm Calm - N/A   Overcast
6:39 AM 45.0 °F - 45.0 °F 100% 30.15 in 2.5 mi Calm Calm - N/A   Overcast
6:53 AM 45.0 °F - 44.1 °F 97% 30.14 in 2.0 mi Calm Calm - N/A   Overcast
7:04 AM 45.0 °F - 44.1 °F 97% 30.14 in 3.0 mi Calm Calm - N/A   Overcast
7:33 AM 46.0 °F 44.8 °F 44.1 °F 93% 30.14 in 2.5 mi South 3.5 mph - N/A   Overcast
7:41 AM 45.0 °F 41.8 °F 44.1 °F 97% 30.15 in 1.8 mi South 5.8 mph - N/A   Overcast
7:53 AM 46.0 °F 44.8 °F 45.0 °F 96% 30.15 in 0.5 mi SSW 3.5 mph - N/A Fog Fog
8:15 AM 46.0 °F 44.8 °F 45.0 °F 96% 30.14 in 0.5 mi SSW 3.5 mph - N/A Fog Fog
8:42 AM 46.9 °F - 46.0 °F 97% 30.14 in 3.0 mi SW 4.6 mph - N/A   Mostly Cloudy
8:53 AM 48.0 °F - 46.0 °F 93% 30.15 in 3.0 mi SW 3.5 mph - N/A   Scattered Clouds
9:53 AM 50.0 °F - 46.0 °F 86% 30.16 in 7.0 mi SSW 9.2 mph - N/A   Partly Cloudy
10:53 AM 55.0 °F - 48.0 °F 77% 30.17 in 10.0 mi WSW 4.6 mph - N/A   Clear
11:53 AM 60.1 °F - 48.9 °F 67% 30.15 in 10.0 mi South 5.8 mph - N/A   Clear
12:53 PM 57.0 °F - 48.0 °F 72% 30.13 in 10.0 mi South 6.9 mph - N/A   Clear
1:53 PM 61.0 °F - 48.9 °F 64% 30.10 in 10.0 mi South 5.8 mph - N/A   Clear
2:53 PM 60.1 °F - 48.9 °F 67% 30.09 in 10.0 mi South 8.1 mph - N/A   Clear
3:53 PM 60.1 °F - 50.0 °F 69% 30.09 in 10.0 mi South 8.1 mph - N/A   Clear
4:53 PM 55.9 °F - 50.0 °F 80% 30.10 in 10.0 mi SSW 10.4 mph - N/A   Clear
5:53 PM 53.1 °F - 48.9 °F 86% 30.10 in 10.0 mi SW 8.1 mph - N/A   Clear
6:53 PM 51.1 °F - 48.9 °F 92% 30.11 in 10.0 mi SW 5.8 mph - N/A   Clear
7:53 PM 52.0 °F - 48.9 °F 89% 30.10 in 10.0 mi SSW 6.9 mph - N/A   Clear
8:53 PM 50.0 °F - 48.0 °F 93% 30.10 in 10.0 mi SSW 6.9 mph - N/A   Clear
9:53 PM 48.0 °F - 46.9 °F 96% 30.09 in 10.0 mi South 4.6 mph - N/A   Clear
10:53 PM 52.0 °F - 50.0 °F 93% 30.09 in 10.0 mi SSW 8.1 mph - N/A   Clear
11:53 PM 51.1 °F - 48.9 °F 92% 30.07 in 10.0 mi SSW 5.8 mph - N/A   Clear